Regional Weather Roundup
Issued by NWS

Home | Current Version | Previous Version | Graphics & Text | Print | Product List | Glossary On
Versions: 1 2 3 4 5 6 7 8 9 10 11 12 13 14 15 16 17 18 19 20 21 22 23 24 25 26 27
000
ASUS45 KCYS 271410
RWRWY

WYOMING REGIONAL WEATHER ROUNDUP
NATIONAL WEATHER SERVICE CHEYENNE WY
800 AM MDT SAT AUG 27 2016

NOTE:  "FAIR" INDICATES FEW OR NO CLOUDS BELOW 12,000 FEET
WITH NO SIGNIFICANT WEATHER AND/OR OBSTRUCTIONS TO VISIBILITY.

WYZ001-271500-
YELLOWSTONE NATIONAL PARK

CITY           SKY/WX    TMP DP  RH WIND       PRES   REMARKS
LK YELLOWSTONE   N/A     35  30  82 CALM      30.22R
W YELLOWSTONE  NOT AVBL

$$
WYZ002>013-054>058-071-098>099-271500-
NORTHERN WYOMING

CITY           SKY/WX    TMP DP  RH WIND       PRES   REMARKS
JACKSON        SUNNY     37  28  70 N5        30.19R WCI  34
CODY           FAIR      48  41  76 CALM      30.02S
GREYBULL       FAIR      50  40  68 CALM      29.99R
WORLAND        FAIR      50  41  71 VRB5      30.00S
SHERIDAN       FAIR      52  47  83 S3        29.97S
BUFFALO        FAIR      56  41  57 VRB6      30.01F
GILLETTE       FAIR      56  51  84 S16       30.00S
HULETT         FAIR      55  50  82 SW6       30.02S
NEWCASTLE      FAIR      57  50  77 SE9       30.06R

$$
WYZ014>020-022>026-101>103-271500-
CENTRAL WYOMING

CITY           SKY/WX    TMP DP  RH WIND       PRES   REMARKS
BIG PINEY      FAIR      38  31  76 CALM      30.23R
PINEDALE       FAIR      34  32  93 NW5       30.23R WCI  30
DUBOIS         FAIR      45  27  49 NW9       30.17R
LANDER         FAIR      50  39  66 CALM      30.09R
RIVERTON       FAIR      52  38  58 W10       30.10R
CASPER         FAIR      59  44  57 SW13      30.09R
DOUGLAS        FAIR      50  47  89 CALM      30.09S

$$
WYZ021-027>030-104>119-271500-
SOUTHERN WYOMING

CITY           SKY/WX    TMP DP  RH WIND       PRES   REMARKS
EVANSTON       FAIR      50  30  46 S7        30.22S
FORT BRIDGER   FAIR      57  32  38 W7        30.24S
ROCK SPRINGS   FAIR      53  35  50 CALM      30.20R
DIXON          FAIR      45  37  72 SE3       30.26S
RAWLINS        FAIR      55  39  54 SW15      30.20R
SARATOGA       FAIR      52  36  54 SE12G17   30.25R
LARAMIE        FAIR      53  36  52 S9        30.23R
CHEYENNE       FAIR      53  41  63 W6        30.17R
TORRINGTON     FOG       52  52 100 SE3       30.07R VSB 1/4
PINE BLUFFS    FAIR      50  48  93 S10       30.13R

$$




USA.gov is the U.S. government's official web portal to all federal, state and local government web resources and services.